Location: Observatory
(49.4490°N, 2.6360°W)
Time: 13:52:01
(UTC+01:00)

CAS-4A - Pass Details

Date: 30 April 2025
Orbit: 371 x 397 km, 43.0° (Epoch: 15 May)

Event Time Altitude Azimuth Distance (km) Brightness Sun altitude
Exits shadow 04:54:47 12° 219° (SW) 1,295 ? -8.6°
Maximum altitude 04:56:59 22° 169° (S) 898 ? -8.3°
Drops below altitude 10° 04:59:30 10° 117° (ESE) 1,402 ? -8.0°
Sets 05:01:51 0° 101° (E) 2,265 ? -7.7°
